{"data":{"norad_id":68077,"intl_designator":"2026-042J","name":"STARLINK-37036","alt_names":[],"object_type":"PAYLOAD","status":"ACTIVE","operator":null,"country":"US","launch_date":"2026-03-04","launch_site_code":"AFETR","launch_vehicle":null,"mission":null,"orbit_class":"UNKNOWN","rcs_meters":null,"size_class":null,"mass_kg":null,"dimensions":null,"purposes":["comms"],"wikipedia_slug":null,"has_3d_model":false,"image_url":null,"decayed_at":null,"tle_current":{"epoch":"2026-09-19T12:19:54.136128Z","epoch_age_seconds":140741,"freshness":"FRESH","line1":"1 68077U 26042J   26262.51382102  .00015169  00000+0  45906-3 0  9990","line2":"2 68077  53.1592 352.5165 0002975  92.2267 267.9076 15.34406926 32061","mean_motion":15.34406926,"eccentricity":0.0002975,"inclination_deg":53.1592,"raan_deg":352.5165,"arg_perigee_deg":92.2267,"mean_anomaly_deg":267.9076,"bstar":0.00045906,"rev_number":3206,"period_min":93.84733447169,"perigee_km":460.64751090566,"apogee_km":464.71779860024,"semimajor_km":6840.8196547529,"source":"CELESTRAK","updated_at":"2026-09-20T09:00:43.778832Z"}}}